RH
60 49 40 30 20 11 6 8 8 8 8 7 7 8 8 9 8 7 7 6 6 8 7 7 8 8 7 7 8 8 9 10 11 13 15 17 20 20 21 24 26 28 26 19 13 13 13 11 12 13 9 10 12 11 13 18 23 24 21 19 19 25 34 35 29 30 40 50 55 60 61 57 58 61 58 60 62 61 65 71 67 60 60 64 66
75 68 54 40 32 20 6 7 9 7 7 7 7 7 6 7 7 6 6 6 6 5 6 7 6 7 7 7 7 7 9 10 11 15 18 21 25 22 19 22 28 31 29 22 16 14 12 8 8 10 10 12 16 15 17 22 26 27 26 25 23 20 22 29 35 39 47 57 57 55 57 58 60 66 71 74 73 69 71 73 70 63 59 62 70
74 75 67 53 43 30 13 8 8 6 7 7 6 7 7 5 6 7 5 6 6 6 5 6 6 7 7 7 7 7 7 8 12 18 20 20 22 20 19 20 22 24 25 25 24 21 16 12 11 10 9 13 19 18 19 27 32 31 30 31 34 32 28 30 40 48 54 59 58 52 51 53 54 58 68 77 77 74 73 75 76 73 66 64 68
64 68 70 65 53 37 25 21 15 7 6 8 7 6 6 6 5 6 7 6 5 6 6 5 6 7 7 7 7 7 7 7 10 15 15 13 13 12 13 15 17 21 27 33 32 23 15 12 11 9 12 19 25 25 26 30 30 27 28 32 38 42 41 39 42 48 51 53 53 51 53 58 58 56 63 71 73 72 70 73 78 78 73 69 66
55 61 67 70 60 45 39 39 32 18 7 5 7 6 5 7 6 5 6 7 6 6 6 6 6 6 6 7 7 7 7 7 7 10 11 10 9 9 8 8 9 12 16 20 18 10 6 9 11 13 18 24 26 28 30 32 35 36 38 40 43 47 50 52 50 48 50 53 56 58 62 65 64 62 64 67 70 72 68 67 74 78 77 76 73
46 54 62 68 66 63 60 52 45 39 26 13 9 8 6 5 7 7 6 5 6 6 6 6 6 6 6 6 7 7 7 8 7 8 9 9 8 8 7 7 6 6 7 8 8 7 7 11 14 16 19 20 22 29 36 42 49 54 54 53 51 53 59 63 60 55 56 60 64 68 70 69 67 65 65 67 71 76 72 63 64 71 75 75 74
38 47 54 59 62 69 73 68 62 56 45 29 15 11 12 9 6 8 8 6 6 6 6 6 6 6 6 6 7 7 6 8 8 8 8 8 8 8 8 7 6 6 7 8 8 8 7 9 12 13 12 14 19 28 38 48 55 58 60 60 59 59 65 69 68 67 67 68 72 76 78 79 77 71 69 73 77 80 76 64 59 66 72 71 69
29 36 45 52 55 60 65 71 72 63 53 43 30 21 17 13 10 10 8 8 7 7 7 7 6 7 7 5 6 6 6 7 7 8 9 8 9 9 7 8 8 7 8 9 11 16 18 15 13 11 10 13 16 22 33 45 53 55 55 56 58 59 61 64 67 70 69 68 70 72 75 80 83 81 79 80 81 84 86 79 70 71 76 72 67
23 27 37 44 49 53 55 58 67 73 67 58 54 45 26 11 12 14 9 7 8 10 11 9 8 8 8 6 6 5 6 6 6 7 7 7 8 8 8 8 8 7 7 8 15 27 27 20 14 13 16 21 25 29 38 46 50 50 49 49 53 56 57 57 58 58 58 56 55 56 57 60 68 75 77 76 76 79 85 88 84 85 90 86 79
21 24 30 36 39 45 51 51 61 82 87 74 70 67 45 21 14 11 7 7 8 11 13 12 11 10 8 7 7 6 5 5 6 6 6 6 7 6 7 8 6 7 7 6 25 50 53 41 31 24 23 31 39 44 48 50 50 48 45 43 44 50 56 55 47 40 40 40 40 44 44 43 48 54 55 58 60 62 68 77 83 86 88 88 88
17 20 24 30 32 35 44 50 55 74 90 86 79 75 63 49 37 23 13 10 8 8 11 13 13 11 8 7 6 6 6 6 7 7 5 6 7 6 7 7 6 8 7 9 38 71 75 59 45 33 26 30 42 53 58 57 55 53 50 47 43 46 55 58 48 36 32 34 36 40 44 46 51 57 56 49 43 46 59 70 73 72 70 70 75
15 19 21 26 28 29 36 46 50 59 74 81 84 85 82 77 67 51 33 19 12 9 8 11 13 9 9 13 10 5 6 7 7 7 5 6 7 5 6 7 5 7 7 13 33 53 57 52 42 31 24 24 34 47 52 50 50 50 50 50 46 47 56 62 53 39 37 40 40 42 52 62 67 67 65 55 45 49 66 74 72 67 62 60 61
13 17 20 24 26 26 31 39 44 48 55 65 76 84 88 88 82 72 55 37 25 17 9 9 11 8 9 14 11 6 6 7 6 5 5 5 6 5 5 6 6 5 5 8 14 26 43 56 54 43 32 25 25 31 33 32 36 40 42 44 46 51 60 65 55 42 42 49 48 46 57 75 83 77 71 70 69 70 74 79 84 83 75 66 61
9 12 16 21 24 24 29 36 38 38 44 54 65 71 76 83 86 83 73 58 42 31 22 15 10 8 9 11 11 8 6 6 6 6 6 5 5 6 5 5 5 6 5 5 5 9 21 33 41 51 53 41 29 27 26 25 25 28 36 49 58 60 61 62 53 44 50 63 67 58 53 61 76 80 77 78 80 78 77 81 91 98 95 86 79
4 7 10 15 21 24 30 33 33 35 43 47 49 53 60 73 86 91 89 81 67 57 52 41 25 16 13 10 9 8 7 8 7 5 6 6 5 6 6 5 5 5 5 6 5 5 7 6 15 36 48 41 31 28 26 24 24 30 43 56 59 53 51 56 56 52 60 76 82 73 59 54 63 72 75 76 75 75 78 81 86 93 95 93 89
4 4 5 8 13 19 26 29 29 37 45 39 32 35 45 60 79 92 96 95 90 83 78 69 56 47 38 28 18 11 9 13 13 8 8 8 7 6 6 6 7 6 6 6 6 5 6 6 10 18 22 26 34 39 38 34 31 35 43 45 40 35 37 46 54 55 55 63 71 70 62 56 58 64 68 70 71 76 82 83 86 91 94 95 95
5 5 4 4 6 11 18 25 27 33 40 39 32 28 31 44 65 83 92 97 99 96 90 83 77 72 67 59 45 27 15 12 13 12 10 9 8 8 7 6 6 7 6 6 7 6 6 9 13 13 15 26 35 36 35 35 31 29 30 27 24 24 26 30 40 44 42 45 54 58 55 53 57 62 65 66 70 82 91 92 90 92 94 97 100
6 5 5 4 5 5 9 16 23 28 35 44 45 35 31 39 54 68 80 88 94 98 98 94 88 82 78 73 64 53 37 22 17 21 22 17 10 6 7 7 7 10 12 11 12 13 11 11 12 14 26 41 41 31 25 26 24 21 19 18 18 20 23 28 33 38 41 44 48 51 53 58 65 69 70 69 69 77 86 88 86 86 86 88 92
6 5 5 5 4 4 5 8 15 22 28 38 45 43 42 47 51 54 61 72 84 96 100 99 97 92 86 82 78 75 63 45 40 49 55 49 33 19 16 15 14 21 28 30 32 32 28 25 24 28 41 55 58 55 51 43 31 20 13 11 15 21 26 32 36 40 45 49 53 57 59 61 68 74 78 77 74 73 78 81 82 81 79 79 83
6 5 5 6 4 5 5 4 10 23 32 35 41 46 50 55 56 54 55 64 80 94 96 95 97 96 92 91 91 90 81 65 56 60 69 74 66 51 44 41 38 44 51 53 57 60 58 58 58 57 62 72 80 85 86 79 69 56 39 24 18 18 22 29 39 46 50 54 63 71 70 66 70 77 83 86 86 84 84 84 83 81 79 77 78
8 7 6 6 5 5 5 3 9 23 35 43 51 55 56 58 58 58 60 64 74 85 85 82 86 90 91 94 96 98 96 87 75 69 74 84 84 76 71 67 63 67 71 71 74 80 81 81 80 79 83 92 97 97 97 96 95 93 83 67 49 39 34 35 41 48 54 63 75 83 82 81 83 85 89 93 93 91 87 84 81 79 78 76 77
10 8 8 7 6 5 5 4 5 10 16 25 37 43 45 47 47 51 59 62 68 79 81 74 73 78 80 82 84 88 95 98 92 86 84 86 87 87 86 82 78 80 82 83 87 92 94 92 88 87 90 92 92 93 96 98 99 100 100 96 88 79 71 65 63 67 75 85 93 94 94 94 93 94 97 98 95 91 87 83 81 79 77 75 75
10 9 8 8 7 6 6 5 5 6 7 10 18 27 37 43 43 48 60 65 68 80 86 82 80 80 78 80 82 86 93 99 99 97 95 92 89 87 84 82 85 91 94 96 99 100 99 98 95 94 95 92 90 93 98 99 100 100 100 99 98 95 91 87 87 90 96 99 100 99 98 97 97 98 97 94 91 87 84 81 78 76 74 71 70
10 10 9 8 7 6 7 6 5 6 7 10 14 23 36 43 44 51 63 68 70 77 83 85 87 88 87 90 95 97 97 99 100 100 99 96 91 87 84 84 91 97 99 99 101 100 100 100 99 99 100 98 96 99 100 99 99 100 100 100 99 97 97 97 98 99 100 101 100 100 100 99 98 96 90 84 81 80 78 76 73 67 62 57 53
11 11 12 12 11 9 8 8 8 7 9 12 14 19 29 37 41 45 53 61 68 77 86 90 92 92 93 96 100 101 99 100 101 98 95 95 92 91 93 94 95 99 100 100 100 100 100 100 99 99 100 99 99 100 100 100 100 100 99 99 100 99 99 100 100 100 100 100 99 98 95 90 84 78 73 70 69 68 66 63 57 50 43 36 31
13 16 20 22 21 17 15 15 14 11 11 13 16 19 26 34 39 40 42 48 56 65 75 83 87 91 95 97 98 99 98 98 97 92 91 97 99 98 99 99 98 100 100 99 99 100 99 98 97 98 99 99 99 100 100 100 100 99 98 98 99 100 100 100 100 99 96 92 86 79 72 65 60 57 56 55 53 51 47 43 38 34 30 26 23
23 29 36 38 34 28 28 32 36 34 28 23 20 22 27 32 37 38 38 43 50 57 63 69 74 80 88 93 97 99 98 99 97 92 92 98 99 98 99 101 101 99 96 96 99 100 99 98 98 98 100 100 99 100 101 100 99 97 97 98 99 100 100 97 92 85 78 72 65 57 50 45 41 40 38 35 33 31 28 27 25 23 22 20 18
47 51 52 49 43 36 37 46 57 62 59 51 43 41 42 43 42 41 38 39 45 56 64 68 70 73 79 87 92 96 98 100 99 96 96 98 98 99 101 100 98 96 93 95 99 100 99 99 99 99 100 101 100 100 100 100 99 99 99 100 100 97 92 85 78 71 66 61 56 49 43 37 31 26 21 17 16 14 13 13 12 11 11 10 9
66 66 62 59 57 54 51 53 60 66 69 68 65 63 62 58 52 52 52 50 50 56 65 72 76 79 82 85 86 87 93 98 99 97 96 95 96 99 100 96 92 91 93 97 100 100 99 100 100 99 100 100 100 101 100 100 100 99 98 96 92 87 82 76 71 67 62 57 53 48 43 38 32 28 23 20 18 16 15 14 12 10 9 8 7
76 74 74 75 75 74 69 65 64 65 65 64 63 62 59 53 49 51 57 62 65 68 70 73 76 77 78 80 79 80 84 90 94 98 98 96 96 98 99 96 93 93 96 98 99 99 100 100 99 100 100 100 100 99 98 96 94 91 88 83 79 74 70 66 61 57 52 49 47 44 42 39 36 34 32 29 27 24 22 19 17 15 12 10 8
81 81 83 84 84 83 81 77 74 71 67 64 63 63 62 61 59 59 62 68 78 83 83 83 83 81 81 84 86 88 90 91 94 99 100 98 98 99 99 99 99 99 100 100 100 99 99 100 100 99 98 97 95 93 89 86 82 77 73 68 65 62 59 55 52 49 46 44 41 38 36 34 32 29 27 24 21 18 15 13 12 11 10 8 8
85 85 83 81 80 79 78 76 73 71 69 68 68 70 71 73 74 76 80 86 94 98 98 98 98 96 96 97 97 98 99 99 99 100 101 100 100 100 100 100 100 100 99 98 96 96 95 94 93 91 88 86 83 79 75 70 66 63 60 57 55 54 51 49 47 44 41 38 35 33 30 26 23 19 16 14 12 10 9 8 7 7 7 7 7
80 78 76 75 76 75 74 70 68 67 66 66 67 69 69 71 72 74 79 85 90 93 93 94 96 96 96 97 97 97 98 99 99 99 98 97 95 94 94 94 92 91 90 88 87 85 83 80 77 74 71 68 65 62 59 57 55 53 52 50 48 46 43 41 38 36 34 31 28 24 21 18 15 12 10 9 8 8 7 7 7 7 7 7 7
71 70 70 72 73 74 74 72 68 66 65 64 66 67 67 68 68 69 69 71 73 76 76 76 77 78 79 79 80 81 81 82 83 83 83 82 80 79 78 78 77 75 74 72 70 67 65 62 60 57 55 54 52 51 50 49 48 47 45 43 41 38 35 33 31 28 25 22 19 16 14 12 10 9 9 9 8 8 8 8 7 7 6 6 6
70 70 70 71 71 71 72 72 69 68 66 64 64 64 64 65 64 64 64 64 64 65 65 65 65 66 66 67 67 67 67 67 67 67 67 66 66 64 62 61 59 57 55 54 53 52 51 50 49 48 47 47 46 45 44 43 41 39 36 34 31 29 26 24 21 19 16 15 13 12 11 11 10 10 9 9 8 8 8 7 6 6 6 5 5
69 69 70 72 72 71 71 71 71 70 67 64 62 60 60 60 60 60 60 59 58 58 57 57 57 56 55 55 55 55 55 55 54 53 53 52 51 49 47 45 43 43 42 42 41 40 39 38 37 36 35 35 34 33 32 30 28 26 25 23 21 19 17 16 14 13 13 12 12 12 12 11 10 10 9 9 8 7 7 6 6 5 4 4 4
67 66 69 72 74 75 76 76 76 76 72 67 64 61 59 58 57 57 56 55 54 53 52 50 49 47 46 45 45 44 44 43 43 43 42 41 41 41 39 38 37 35 33 32 30 28 27 26 25 25 24 23 22 21 20 18 16 15 14 12 12 11 11 11 11 12 12 12 12 11 11 10 9 9 8 8 7 6 6 5 5 5 4 4 4
70 67 69 73 76 79 83 84 83 80 76 72 68 65 62 60 58 56 54 52 50 49 47 46 44 41 39 38 37 35 33 32 32 32 31 30 30 31 30 30 30 28 26 24 22 21 20 19 18 17 16 15 14 12 11 10 9 8 8 8 9 10 11 11 11 12 12 12 11 11 10 9 9 8 7 7 6 6 5 5 4 4 4 4 3
76 69 69 72 75 78 85 91 92 88 82 77 73 70 67 63 59 55 53 50 47 45 42 40 38 36 34 33 31 28 26 24 23 22 22 20 20 19 19 19 19 18 18 17 16 16 15 14 13 12 11 10 9 7 7 6 6 7 8 10 11 12 13 13 12 12 12 11 11 10 10 9 8 7 6 6 6 5 4 4 4 4 4 4 4
84 74 69 71 74 76 81 89 97 97 91 84 79 77 74 70 65 59 54 50 47 43 38 35 33 30 28 26 25 22 21 20 19 18 17 16 14 13 13 13 12 12 12 11 11 11 10 10 9 8 7 7 6 6 6 7 9 11 12 12 13 13 14 13 13 13 12 11 11 10 9 8 7 6 5 5 5 4 4 4 4 4 4 4 5
93 84 77 74 73 75 79 84 90 96 97 93 86 81 80 77 72 65 58 53 49 45 40 36 32 29 25 21 18 16 15 15 15 14 14 13 12 12 12 11 11 11 10 10 9 9 9 8 7 7 6 6 7 7 9 11 13 14 15 15 15 15 14 14 13 12 12 11 10 8 7 6 6 5 4 4 4 4 4 4 5 5 5 5 5
98 95 91 85 82 82 84 83 84 89 96 98 93 86 83 81 77 70 64 58 52 45 39 34 29 26 21 17 15 14 14 13 13 12 12 12 12 12 12 12 11 10 10 9 9 9 8 7 7 7 7 9 10 12 14 16 17 18 18 17 17 16 15 14 13 12 11 10 8 7 6 5 5 5 4 4 5 4 5 5 5 5 6 6 6
101 100 95 91 90 91 90 88 86 86 89 92 91 87 85 83 78 72 66 59 51 43 38 32 26 21 17 15 13 13 12 11 10 10 11 11 11 11 11 11 10 10 10 9 8 8 7 7 8 9 10 12 15 17 19 20 20 19 18 17 17 16 15 14 13 11 10 9 7 6 5 5 5 5 4 4 5 5 6 6 6 6 6 6 5
84 86 88 92 95 93 89 88 89 88 87 87 86 85 85 84 79 72 66 61 54 46 41 35 28 22 20 18 17 15 14 13 13 12 11 11 11 10 10 10 10 9 9 8 8 8 9 9 10 12 13 16 18 20 21 21 20 19 19 18 17 16 15 14 12 10 9 8 6 5 5 5 5 5 5 5 6 6 6 6 7 6 6 6 6
62 66 76 87 92 89 88 90 92 91 90 89 88 87 87 84 77 70 67 66 62 54 46 41 36 33 32 30 28 25 22 19 16 14 12 11 10 10 9 9 8 8 8 8 9 10 11 12 14 17 20 22 23 24 23 22 21 20 19 18 17 16 14 12 10 9 7 7 6 5 5 5 6 6 6 7 7 7 8 7 7 6 6 7 7
60 59 64 72 80 86 91 94 94 92 89 87 87 87 86 80 73 70 70 71 67 60 51 44 39 35 31 27 24 20 17 15 13 11 10 9 9 8 8 8 8 9 10 11 12 13 15 18 21 24 26 27 26 25 23 21 21 20 19 18 17 15 13 11 9 8 7 6 6 6 6 6 7 8 8 8 8 8 8 7 7 7 7 8 8
64 62 62 69 81 90 92 91 91 90 87 86 86 85 82 77 73 70 66 59 52 43 35 28 24 20 16 15 13 12 11 10 10 9 8 8 8 8 9 10 11 13 13 14 16 18 21 24 27 29 30 29 26 24 23 22 21 20 19 17 15 13 11 9 8 7 6 6 6 7 7 8 9 9 9 9 9 9 8 8 7 8 8 8 8
75 73 74 82 92 95 91 89 89 89 88 87 85 80 73 65 58 50 40 32 26 21 18 15 14 13 12 12 11 10 9 9 8 9 9 9 10 11 11 12 14 15 16 18 21 23 25 28 30 31 31 28 26 24 23 23 22 21 19 16 14 12 10 9 7 7 7 7 7 8 9 10 11 11 11 10 10 9 8 8 8 8 8 8 9
72 76 80 85 90 88 85 85 87 87 85 80 72 61 50 40 32 25 20 18 16 15 14 13 13 12 11 11 10 9 9 10 10 10 11 11 12 13 14 14 15 17 18 21 24 28 30 32 34 33 31 28 26 25 25 24 23 21 18 15 13 11 9 8 7 7 7 7 8 9 10 11 12 13 12 11 10 9 8 8 9 9 8 9 11
56 62 68 72 75 76 77 79 79 74 66 55 44 34 27 22 19 17 17 16 14 14 13 13 13 12 12 12 12 11 11 12 12 12 13 14 15 16 16 16 17 19 21 24 28 32 35 36 36 35 32 28 27 27 26 25 23 20 17 14 12 10 9 9 8 8 8 8 9 10 11 13 14 14 13 12 10 9 9 9 9 9 10 11 13
52 56 60 63 65 66 64 60 54 45 35 29 24 21 20 18 17 16 16 15 15 15 15 14 15 15 14 13 13 12 13 13 13 14 15 17 17 18 19 19 20 22 26 30 33 36 38 39 38 36 33 30 29 28 27 24 22 19 16 13 11 10 9 9 9 9 9 9 9 10 12 14 16 15 14 12 10 10 10 10 10 10 11 13 15
Wind_Speed
17 17 15 13 14 14 14 14 13 13 12 12 12 12 12 12 12 12 12 12 12 12 12 12 12 13 12 12 12 12 12 12 11 11 11 10 10 10 10 10 10 9 8 7 8 7 8 8 8 7 7 7 8 8 9 10 11 11 11 10 10 9 9 9 9 9 8 9 9 10 12 11 8 6 6 7 8 8 9 9 8 9 9 10 9
16 16 16 15 16 16 16 15 15 14 14 13 13 13 13 13 13 13 13 13 13 12 12 12 12 12 12 12 12 12 13 12 12 12 11 11 11 11 10 10 10 9 8 8 8 8 9 8 8 8 8 8 8 9 10 11 11 11 12 11 11 10 10 10 9 9 9 10 10 11 14 14 11 8 8 9 9 9 9 9 9 10 10 10 11
15 15 17 18 18 18 18 17 17 16 15 15 15 14 15 14 14 14 14 14 14 13 13 12 12 12 12 12 12 12 13 12 13 13 12 12 11 11 11 11 10 9 9 9 9 9 9 9 9 9 8 8 9 10 10 11 12 12 12 12 11 11 11 11 11 11 12 12 11 12 14 16 15 13 13 13 12 11 11 10 10 11 10 10 10
16 15 17 19 20 20 19 19 19 18 17 17 17 17 16 16 15 15 15 15 15 14 13 13 12 12 12 12 12 12 12 12 13 13 13 12 12 12 12 11 10 11 11 10 10 10 10 9 9 10 10 9 10 10 11 12 13 13 13 13 13 12 12 12 12 12 14 14 13 12 14 16 17 17 18 18 17 15 13 11 10 10 11 11 12
18 16 17 19 21 21 20 20 20 21 20 20 19 19 19 18 17 17 16 16 16 15 14 14 13 13 13 13 12 12 13 13 13 13 13 13 12 12 12 12 12 12 11 11 11 12 11 10 9 10 12 11 10 11 12 12 13 15 16 16 15 14 14 14 13 13 15 17 16 15 15 16 17 18 20 21 22 19 16 13 11 11 12 13 14
20 18 18 19 20 22 23 22 22 23 24 23 22 22 21 20 19 19 18 18 17 16 15 14 14 14 14 14 14 14 14 13 14 13 13 13 13 14 14 13 13 13 13 13 13 13 12 12 11 12 13 12 11 12 13 14 15 16 17 18 17 17 16 16 15 15 16 18 18 18 19 20 19 19 19 21 22 21 17 15 13 12 13 14 15
22 21 21 21 20 21 23 24 24 25 26 26 26 25 24 23 22 21 20 20 19 18 17 16 16 16 16 15 15 15 15 15 15 15 14 14 14 15 15 14 14 15 15 15 15 16 14 14 14 14 15 14 13 14 14 15 16 16 17 18 18 18 18 18 17 17 18 18 18 19 21 23 22 20 19 20 21 21 19 17 15 14 14 14 15
23 23 23 23 22 22 22 23 26 28 28 27 28 27 26 25 25 24 23 22 21 20 20 19 18 17 17 17 17 16 16 16 17 16 15 15 15 16 16 16 17 18 18 17 18 18 17 17 17 17 17 17 16 15 15 16 17 18 18 18 19 19 19 19 19 19 20 20 20 20 22 23 22 20 19 20 21 22 21 19 18 18 16 14 15
23 24 24 25 25 25 23 24 26 29 29 28 29 29 29 28 27 27 26 25 24 23 22 21 21 20 19 18 18 18 17 17 18 17 17 17 17 17 17 18 19 20 20 19 18 19 19 20 20 19 19 19 18 18 18 18 20 20 20 20 21 21 21 21 21 22 22 23 23 23 24 24 23 21 20 21 22 23 23 21 19 18 16 15 16
23 24 24 26 27 27 26 26 26 26 28 30 32 32 31 31 31 30 29 27 27 26 25 24 23 22 21 20 20 20 19 19 19 18 18 18 18 19 18 19 21 21 21 20 19 20 21 20 20 19 19 19 20 21 22 22 22 21 21 22 23 23 23 23 23 23 24 24 25 25 26 26 25 24 23 23 24 25 25 23 21 20 19 19 19
23 23 24 25 27 28 28 29 28 25 25 30 34 35 34 33 33 32 31 30 30 29 27 26 25 24 24 23 23 23 22 22 21 19 19 19 19 20 19 21 22 22 22 20 19 20 22 22 21 20 20 21 21 23 25 25 24 23 23 24 24 25 25 25 24 24 25 26 26 26 26 27 28 26 25 24 25 26 25 23 22 23 23 22 22
23 23 24 25 27 28 29 30 29 27 26 29 33 34 35 35 34 33 33 32 33 33 31 29 28 27 26 26 27 26 25 25 23 22 21 21 21 22 22 23 23 23 22 20 20 22 24 24 23 23 23 23 24 25 27 28 28 26 26 27 27 27 26 25 25 26 26 27 27 26 27 28 28 27 26 26 26 24 23 23 25 26 26 26 25
23 24 25 26 27 28 29 29 29 30 29 30 32 32 32 33 35 35 35 34 34 35 35 33 32 31 29 29 30 29 28 26 25 25 24 24 24 24 25 26 25 24 24 22 22 25 26 25 25 25 25 25 26 28 29 30 30 29 28 29 29 28 27 26 26 27 28 29 29 28 28 28 27 27 27 26 23 22 23 26 27 27 26 27 27
23 24 25 26 27 28 28 28 29 31 32 32 33 32 31 32 34 37 38 38 36 35 35 35 34 34 33 32 32 32 30 29 28 27 27 28 27 27 28 28 27 25 27 27 26 27 28 28 28 28 28 28 29 30 30 31 32 31 30 30 29 28 28 28 29 29 29 29 28 28 29 31 30 28 28 27 27 27 29 29 28 26 25 26 27
23 24 24 25 27 28 28 28 29 31 33 34 35 35 34 34 36 37 38 39 38 36 36 37 36 36 36 35 35 34 32 31 31 30 30 31 31 30 31 30 28 28 30 30 30 31 32 31 31 30 30 31 32 32 32 33 33 32 31 30 30 30 30 30 30 29 28 28 28 28 30 32 32 31 31 32 33 34 34 34 33 32 32 32 33
24 24 24 25 26 27 28 29 30 31 31 34 37 37 37 37 37 36 36 38 39 39 40 40 38 37 36 36 37 36 33 32 33 33 33 34 34 35 34 32 31 31 32 33 33 35 35 35 34 33 33 33 33 33 33 33 34 33 32 32 33 33 33 33 32 32 33 34 33 31 32 34 35 36 36 36 37 37 37 36 36 35 36 38 38
25 25 25 25 25 26 28 29 31 31 31 32 36 38 39 38 37 35 34 35 36 39 41 41 39 38 37 36 36 36 35 35 35 35 36 37 38 38 36 33 33 33 33 34 36 37 37 37 36 35 35 35 34 34 34 35 35 35 34 35 36 36 37 37 37 37 38 38 38 36 36 38 39 40 41 40 40 38 36 35 34 35 36 38 39
25 26 27 27 26 26 27 29 31 32 32 31 33 34 36 37 36 35 35 34 33 35 38 41 41 40 39 38 37 36 36 37 38 38 39 39 40 40 37 35 35 34 34 35 37 38 38 38 37 35 35 35 35 36 37 37 37 37 37 38 38 38 39 40 41 41 40 40 40 40 40 40 40 41 42 42 41 40 38 37 37 37 38 39 40
25 26 27 28 28 27 27 29 30 32 32 32 31 30 32 33 34 35 37 37 34 32 33 36 40 40 41 42 40 37 37 38 39 39 39 39 40 40 37 35 36 35 35 36 37 38 38 38 36 35 35 35 36 37 39 40 40 40 40 40 41 41 41 41 42 43 43 43 43 43 43 42 41 41 40 39 39 39 39 38 38 38 38 39 39
25 26 27 28 29 28 29 29 30 31 31 32 31 30 30 31 32 34 36 37 36 32 30 30 34 36 40 42 42 41 40 40 40 40 40 40 39 38 36 35 35 36 36 36 37 38 38 38 38 37 37 37 37 39 41 42 43 44 44 44 44 44 44 44 44 44 44 45 45 45 44 42 40 38 37 36 35 35 35 35 36 36 36 35 35
24 25 26 28 29 30 30 30 31 31 31 31 30 29 28 28 30 33 34 35 34 33 32 32 32 33 35 37 39 40 42 43 43 43 43 41 40 40 37 36 36 37 38 38 39 39 40 40 41 41 40 39 39 41 42 43 44 45 46 47 47 47 47 47 46 45 45 44 43 42 40 39 37 36 35 34 34 33 33 33 33 34 34 33 33
24 25 26 27 29 30 30 30 31 33 32 31 30 29 28 28 30 32 33 33 32 31 32 33 33 34 34 35 35 37 41 44 46 46 45 44 43 41 40 39 39 39 39 41 41 41 42 42 42 42 42 42 44 45 45 45 43 43 44 46 46 46 46 47 46 44 42 41 39 37 37 35 33 32 32 32 32 32 32 32 32 32 33 32 32
25 25 26 27 28 30 30 30 31 32 32 30 30 31 30 28 28 30 30 29 30 29 28 28 30 32 32 34 35 37 39 43 46 48 47 45 43 43 42 42 41 39 38 39 40 40 42 43 43 42 43 45 46 45 45 44 43 42 42 42 40 39 39 39 39 38 37 36 35 34 34 33 31 29 29 29 30 31 31 31 32 32 31 31 31
26 26 26 27 28 29 30 30 30 31 31 29 29 30 30 28 28 28 27 26 26 27 27 27 29 29 29 30 32 33 35 39 43 46 45 44 43 44 44 41 38 38 40 40 41 42 43 43 42 40 41 44 45 43 42 42 40 39 38 35 34 33 34 34 33 33 33 33 34 34 34 33 30 29 28 28 29 30 30 30 30 30 29 29 28
26 26 26 26 27 27 28 29 29 29 29 28 28 29 30 29 28 27 27 26 25 26 28 28 26 26 26 25 25 26 29 31 31 31 37 45 45 40 38 39 39 39 41 42 42 41 41 39 38 38 39 39 38 37 37 37 35 34 33 32 32 32 32 32 31 31 31 31 31 30 29 28 26 26 26 26 27 28 28 28 28 28 27 27 26
24 24 23 23 24 24 25 26 26 26 26 26 26 27 29 29 28 27 27 28 27 29 31 29 27 26 27 26 26 28 30 29 23 17 21 37 47 42 37 38 38 36 34 33 34 35 36 37 37 38 38 34 31 31 32 32 32 32 32 32 33 33 32 31 30 28 27 25 24 23 22 21 21 22 23 24 25 26 26 27 27 27 27 27 27
22 21 21 21 21 22 22 21 21 21 22 22 23 24 26 28 28 27 27 28 28 29 31 31 30 29 29 28 29 34 35 35 32 26 22 27 38 41 36 33 32 31 31 32 34 34 33 32 31 32 32 31 29 28 27 27 28 30 30 31 32 31 29 27 24 22 20 19 18 18 18 18 19 20 22 23 24 25 26 26 27 28 28 29 30
18 18 18 18 19 19 19 19 17 17 18 19 19 20 22 24 25 27 28 28 28 28 29 30 29 29 29 29 29 32 33 35 38 38 29 25 28 33 34 32 32 33 34 36 38 35 28 25 24 25 28 29 29 28 27 27 28 28 28 28 26 23 21 19 17 17 17 17 17 17 17 18 19 20 22 23 24 25 26 27 28 29 30 31 32
15 14 14 15 15 16 16 17 16 15 16 17 17 18 19 19 20 21 22 25 27 28 28 28 28 28 28 27 27 28 30 31 36 39 38 38 37 36 37 36 35 33 32 32 33 33 31 29 29 29 30 31 30 30 28 27 26 24 22 20 18 15 14 14 14 15 16 16 17 18 19 20 21 22 23 24 25 26 27 28 29 30 32 33 34
12 11 11 11 12 13 14 14 14 14 14 15 15 17 17 17 16 15 14 16 20 24 26 26 26 26 26 27 27 27 27 29 34 37 38 38 37 35 33 31 29 28 27 27 27 28 29 28 28 27 27 26 24 22 20 18 16 15 14 13 13 12 12 13 13 15 16 17 19 20 21 23 24 25 26 26 27 29 30 32 33 34 35 37 38
10 9 9 10 11 12 11 11 10 10 11 11 12 13 13 14 14 13 12 12 13 14 16 18 19 21 22 23 25 27 27 28 31 34 35 35 33 29 26 24 23 23 21 20 20 20 19 18 17 17 16 15 14 12 12 11 11 11 11 11 11 12 13 14 15 16 18 19 21 22 23 25 26 28 29 30 31 32 34 36 37 38 39 39 40
9 8 7 7 7 7 7 7 6 6 7 7 8 8 9 10 10 9 9 10 10 10 11 11 12 12 14 17 18 20 22 24 25 26 27 26 25 23 20 19 19 17 15 14 12 11 11 11 10 10 10 10 10 10 10 10 10 11 11 12 13 14 15 16 17 18 20 21 23 24 26 27 29 31 32 33 34 35 36 37 39 39 40 41 42
7 6 5 4 4 4 4 4 4 3 3 4 4 5 5 5 4 4 4 5 6 7 8 8 8 8 9 11 13 13 15 17 18 18 17 16 16 15 14 13 13 13 12 11 10 10 9 9 9 9 9 9 9 10 11 12 12 13 14 15 15 16 17 18 19 21 23 24 26 28 29 30 31 33 34 35 36 37 37 38 39 40 41 42 43
6 5 3 3 3 4 4 3 3 2 2 2 2 2 2 2 1 1 2 1 2 2 3 3 4 5 5 6 7 8 9 10 11 12 11 10 10 10 10 10 10 9 9 9 8 8 8 8 9 10 11 12 13 14 15 15 15 16 16 16 17 18 19 21 23 24 26 27 29 30 32 32 33 34 35 36 37 38 38 39 40 41 42 43 45
6 5 4 3 3 3 2 2 2 2 1 2 2 1 1 1 1 1 1 0 0 0 1 1 2 2 2 2 3 4 4 5 6 7 7 7 6 6 6 7 7 8 8 9 10 11 11 12 13 14 14 15 15 16 16 16 17 17 18 19 20 21 23 24 26 27 28 29 30 31 33 34 34 35 36 37 38 39 40 40 42 43 45 46 47
6 5 5 5 4 3 2 1 1 1 1 2 2 1 1 1 0 0 0 0 1 1 1 2 2 1 1 1 1 1 1 2 3 3 4 4 5 6 7 8 9 10 11 12 13 14 14 14 15 15 15 15 16 16 17 17 18 19 20 21 23 25 26 27 27 28 30 31 31 32 34 35 36 36 37 38 39 41 42 43 44 45 47 48 49
7 6 5 4 4 3 2 1 1 2 2 2 2 2 2 2 2 1 1 1 1 1 1 1 2 2 2 2 2 3 3 4 5 5 6 7 8 9 9 10 11 11 12 12 12 13 13 13 14 14 14 15 16 17 18 20 21 22 23 24 25 26 27 28 29 30 31 32 33 34 34 35 37 38 40 41 42 43 44 45 46 47 48 49 50
8 8 6 5 5 4 3 2 2 2 3 3 2 2 3 3 3 3 2 2 2 2 2 2 3 3 3 3 4 5 6 6 7 8 8 9 9 10 10 11 11 11 11 11 11 11 12 12 13 14 16 18 19 20 21 22 23 24 24 25 26 27 28 29 30 31 32 33 34 35 36 37 38 40 41 42 43 45 46 47 48 48 49 50 51
10 10 9 8 7 6 5 5 5 5 4 4 4 3 3 3 4 3 3 3 3 3 3 3 4 4 4 5 5 6 6 7 7 8 8 9 9 9 10 10 10 11 11 11 12 13 14 15 16 18 19 21 22 22 23 24 24 25 26 26 27 28 30 31 31 32 33 34 35 37 38 39 40 41 43 44 44 45 46 47 48 48 48 49 50
13 13 12 11 10 9 9 9 9 9 8 7 6 5 4 4 4 4 4 4 4 4 4 5 5 5 6 6 6 7 7 8 8 8 9 9 9 9 10 10 11 11 12 13 14 15 17 18 19 20 22 22 23 24 24 25 25 26 27 28 29 30 31 32 32 33 34 35 36 38 39 39 40 42 43 44 44 44 45 46 47 47 47 47 49
16 14 13 13 12 12 11 11 11 11 11 10 9 8 7 7 6 6 6 6 6 5 6 7 7 7 8 8 9 9 9 9 10 10 10 10 10 11 11 11 12 13 14 16 17 18 20 21 22 22 23 24 24 24 25 25 26 27 28 30 31 31 31 32 33 34 35 36 37 38 40 40 40 41 43 43 44 44 44 45 46 46 46 46 47
19 16 14 14 14 14 13 12 11 10 10 11 11 10 10 9 9 9 9 8 8 8 8 8 8 9 9 10 10 11 11 12 12 12 13 13 13 13 13 14 15 16 17 19 20 21 22 23 23 23 24 24 25 25 26 26 27 28 29 30 31 32 33 33 34 35 36 37 38 39 40 41 41 41 42 43 43 43 44 44 45 46 46 46 46
18 18 16 16 16 15 13 12 11 10 10 11 12 12 12 12 12 11 11 10 10 10 10 10 10 10 11 11 12 12 13 13 14 14 15 15 15 16 16 17 18 19 20 21 22 23 24 24 24 25 25 25 26 26 27 28 29 30 31 31 32 33 34 35 36 37 38 38 39 39 40 41 42 42 42 43 43 43 44 44 44 45 45 45 45
19 19 19 19 17 16 15 14 13 13 13 13 14 14 14 14 14 13 12 11 11 12 12 12 12 12 13 13 14 14 15 15 16 16 16 17 17 17 19 20 21 21 22 23 23 24 25 25 25 26 26 26 27 28 29 30 31 31 32 32 33 34 35 36 37 38 39 39 39 39 40 40 41 42 42 42 43 43 43 43 44 44 44 45 44
20 20 20 19 18 17 16 16 15 15 15 16 16 16 16 15 14 14 13 13 12 12 13 14 14 14 14 15 16 16 16 16 17 17 17 18 18 19 20 21 22 22 23 24 24 25 25 25 26 26 26 27 28 29 29 30 31 31 32 33 34 35 36 36 37 38 38 39 39 39 40 40 40 41 41 42 42 42 42 42 43 43 43 43 43
20 20 19 19 18 17 16 16 16 17 17 17 16 16 15 15 14 13 13 13 13 12 13 14 14 14 15 15 16 16 17 17 18 18 19 19 19 20 21 22 23 23 24 24 25 25 25 25 26 26 27 28 29 29 30 31 31 32 33 33 34 35 36 36 37 38 38 38 39 39 39 39 40 40 41 41 41 42 42 42 42 42 42 42 42
18 18 18 17 16 16 17 16 16 16 16 15 15 14 14 13 13 12 12 13 12 12 12 13 14 15 15 15 16 17 17 18 18 19 20 20 21 21 22 23 24 25 25 25 25 26 26 26 26 27 28 29 29 30 30 31 32 33 33 34 35 36 36 37 37 38 38 38 38 39 39 39 39 40 41 41 41 41 41 41 41 41 41 41 42
14 15 15 15 16 17 17 16 15 15 15 14 14 14 13 12 12 12 12 12 12 13 13 13 14 15 16 17 17 18 19 19 20 20 21 22 23 23 24 24 24 25 25 25 26 26 27 27 28 28 29 29 30 30 31 31 32 33 34 35 36 36 37 37 37 37 37 38 38 38 39 39 39 40 40 41 41 41 40 40 40 40 40 40 40
13 13 14 15 16 16 16 15 14 15 15 14 13 13 12 12 12 12 12 13 14 14 15 15 15 16 18 18 19 19 20 21 21 22 22 23 24 25 26 26 25 25 25 26 26 27 27 28 29 29 30 30 30 31 32 32 33 34 35 35 36 36 36 36 37 37 37 37 38 38 39 39 40 40 40 40 40 40 39 39 39 39 39 38 37
14 14 14 15 15 15 15 14 14 14 14 14 13 13 12 12 12 13 14 14 15 16 17 17 17 18 19 20 21 22 22 23 23 23 23 24 26 27 28 28 27 27 26 26 27 28 28 29 30 30 31 31 32 32 33 34 34 34 35 35 36 36 36 36 36 36 37 37 38 38 39 39 40 40 40 39 39 39 38 38 38 38 37 36 34
14 14 14 15 14 14 14 14 14 14 14 14 14 14 13 13 14 15 16 16 17 19 20 20 20 21 22 22 23 24 24 24 25 25 25 26 27 28 28 28 28 27 27 27 28 29 30 30 31 31 32 32 33 33 34 34 34 35 35 35 36 36 36 36 36 37 37 37 38 38 39 39 40 40 39 39 38 38 37 37 37 36 35 33 30
Wind_Direction
236 235 232 228 224 223 223 221 218 216 216 218 221 223 224 226 227 227 230 232 233 235 236 235 237 240 242 243 243 242 241 241 240 239 240 242 242 242 242 243 244 244 245 249 251 250 247 248 251 259 264 266 268 273 281 289 294 296 298 301 307 314 319 318 319 326 327 316 310 312 313 313 321 329 323 319 311 309 318 325 332 339 338 339 340
244 242 236 233 230 228 227 227 226 224 223 224 226 229 230 231 233 232 232 234 236 238 239 241 243 245 246 246 246 244 243 243 244 243 242 242 244 245 246 246 245 247 250 252 255 257 255 255 255 257 263 266 268 272 279 285 288 290 292 296 302 308 309 308 309 311 310 307 307 306 301 299 303 308 304 298 295 302 313 319 325 331 331 331 326
249 249 240 235 235 234 230 229 230 228 228 230 231 233 235 234 236 237 236 237 237 238 239 241 246 249 250 250 249 248 246 244 245 246 243 240 243 244 243 244 245 249 252 254 260 265 265 266 267 267 271 274 274 274 277 281 283 284 286 289 293 298 300 301 304 306 303 302 302 297 294 297 302 304 304 301 296 301 314 322 323 321 319 317 309
246 250 246 239 237 237 234 231 233 231 230 233 234 236 238 238 237 238 240 241 241 240 240 239 241 245 248 249 250 250 248 246 243 244 244 242 240 240 240 241 243 248 254 258 264 267 268 270 272 272 272 272 274 276 278 281 284 284 285 285 288 294 299 302 303 304 302 299 298 297 297 301 304 304 304 303 299 298 305 315 318 315 310 304 300
244 245 247 242 238 240 239 236 239 240 236 234 235 237 238 239 240 239 240 243 244 244 243 242 241 243 244 245 246 247 248 248 244 241 243 242 239 238 240 242 244 248 254 259 265 267 270 273 275 276 275 273 274 277 278 281 284 287 288 289 290 295 300 302 301 302 301 300 301 300 298 298 299 299 300 300 298 298 301 307 310 310 307 301 299
244 241 242 240 239 241 243 241 241 244 242 238 236 237 237 238 240 241 241 242 245 247 246 246 246 247 247 244 243 244 244 245 245 242 240 240 238 240 243 247 252 255 257 260 265 270 275 278 278 277 277 277 276 275 276 279 282 286 288 290 292 293 297 299 297 296 295 295 297 298 297 294 291 292 296 297 296 295 295 297 300 301 298 295 296
243 242 241 240 239 239 243 243 241 241 243 243 240 238 237 237 238 240 241 241 243 246 247 246 245 246 249 249 247 247 246 245 245 245 243 242 241 243 247 251 256 260 262 264 266 268 271 274 273 272 274 275 272 272 274 277 280 283 284 286 288 290 293 295 294 293 292 293 295 296 295 293 290 290 294 297 296 292 289 290 294 295 292 290 292
240 240 239 239 239 238 239 242 241 240 241 245 246 244 242 240 239 239 239 239 241 244 245 245 244 243 245 249 251 250 249 249 248 248 248 248 247 248 251 255 258 262 264 266 268 270 271 272 272 273 274 274 273 274 277 279 279 279 279 282 284 287 290 291 291 292 292 293 294 293 293 293 294 294 293 293 293 291 290 293 295 293 289 284 285
242 241 239 238 238 239 238 241 242 238 237 241 246 248 248 246 244 243 241 239 239 241 243 245 245 245 244 246 250 252 251 251 251 252 253 253 253 253 255 258 261 263 265 267 271 273 272 272 273 275 279 281 282 282 280 278 277 278 281 284 287 289 290 288 289 291 291 292 292 291 291 293 294 294 292 290 291 293 294 297 297 292 288 287 288
243 242 241 239 239 239 239 241 242 238 235 236 239 243 247 247 247 247 246 244 242 240 242 243 245 247 247 246 247 250 251 252 251 252 253 254 255 254 255 257 259 262 263 264 265 266 269 274 277 278 281 282 283 283 281 278 278 281 285 288 289 289 289 289 288 289 290 291 291 291 292 293 292 291 290 289 291 293 295 295 294 292 292 295 296
247 244 242 241 240 240 239 239 240 238 236 236 238 240 243 243 244 245 246 247 247 245 243 243 244 246 248 250 248 248 250 252 252 252 252 254 256 256 256 257 258 260 262 263 263 265 269 276 279 278 277 277 277 278 279 279 279 282 285 287 286 286 287 289 289 289 290 290 290 290 292 293 292 290 289 288 289 290 292 290 289 290 290 291 291
254 250 246 244 243 242 241 241 241 239 236 238 241 242 242 243 243 243 244 245 247 248 246 244 244 244 246 249 250 249 248 250 252 254 254 254 256 257 258 259 260 262 265 266 266 266 266 269 272 274 274 275 276 276 277 278 279 281 283 283 284 285 286 288 289 289 289 288 288 290 291 293 293 291 291 293 291 289 291 291 289 288 287 286 286
258 254 250 247 245 245 244 244 243 241 238 240 244 246 246 246 245 244 244 243 243 246 247 246 245 244 244 246 249 250 250 251 253 254 255 256 256 257 259 261 262 265 268 267 265 266 267 268 270 272 273 274 275 276 277 280 281 282 283 283 284 284 285 286 287 288 289 289 289 289 290 292 292 291 293 295 292 289 292 294 290 287 286 286 284
261 257 253 250 248 247 248 248 244 242 241 242 244 245 246 247 246 244 244 244 242 244 248 250 250 248 247 247 248 249 250 252 253 253 255 257 257 257 259 260 262 265 268 268 268 269 272 272 271 272 273 275 275 276 278 280 282 284 285 284 284 284 283 283 285 287 289 291 291 290 289 290 291 291 292 291 289 289 293 293 289 286 287 286 285
265 261 257 254 250 249 250 250 246 244 243 242 243 245 245 247 248 245 243 243 243 244 248 251 252 252 251 251 251 252 253 254 256 256 256 257 258 258 258 260 263 265 267 269 270 270 272 273 272 272 273 275 276 277 279 280 281 282 283 284 285 285 283 282 282 283 285 288 292 293 291 290 291 291 290 289 289 290 291 290 288 285 284 284 285
267 265 262 258 254 251 251 250 249 250 246 241 241 244 246 248 250 249 247 245 244 243 244 245 247 249 250 251 253 254 255 256 257 258 258 258 259 259 259 260 263 265 267 270 271 271 271 272 272 272 273 274 274 275 276 277 279 280 281 282 283 284 283 282 281 281 283 285 288 289 290 290 291 291 290 290 291 291 290 289 287 285 283 283 284
267 268 267 264 259 255 251 250 251 253 251 245 243 243 246 249 252 254 254 252 248 243 239 240 243 245 246 249 252 253 254 254 255 256 256 257 258 259 260 262 264 266 268 270 270 271 272 273 273 273 274 273 273 274 275 275 276 278 280 280 281 282 283 282 281 281 281 283 284 285 287 288 289 290 290 290 290 291 290 289 287 286 284 284 283
266 267 267 266 264 259 255 251 250 251 253 252 249 246 247 252 255 256 257 257 256 250 241 238 240 243 247 251 251 251 253 255 255 255 254 255 256 258 260 263 265 266 268 268 270 271 272 273 273 274 275 275 277 279 279 278 278 278 279 280 281 281 281 281 280 280 280 281 283 284 286 286 287 289 289 289 288 289 290 290 290 289 288 287 286
266 266 266 266 265 263 260 255 251 251 252 254 254 252 251 253 255 255 255 256 258 258 250 241 239 242 246 249 250 251 252 253 254 255 256 257 258 259 261 263 264 266 267 268 269 270 272 273 272 272 273 275 277 280 280 280 280 279 278 278 278 277 277 277 278 278 280 281 283 284 284 285 287 289 290 289 289 289 290 290 290 289 289 289 289
267 267 266 266 265 264 261 258 255 253 252 253 255 254 252 251 251 252 255 257 259 262 259 252 247 246 248 250 251 252 252 252 252 254 257 259 260 261 263 265 266 268 269 269 270 271 273 273 273 272 273 275 278 280 280 280 279 278 277 275 273 274 275 275 276 277 278 281 283 284 285 286 288 291 293 293 292 290 289 289 289 290 290 291 292
269 268 267 266 265 264 262 259 257 255 252 251 253 254 252 252 252 252 255 258 260 261 261 258 255 254 254 255 255 255 255 254 254 254 255 256 259 262 266 267 267 268 269 270 271 272 273 274 275 275 276 277 279 280 280 281 281 279 276 273 272 272 273 275 277 279 280 282 285 287 289 291 292 292 292 292 290 289 288 288 289 291 293 295 296
271 270 269 267 265 264 263 260 258 257 254 252 254 255 255 254 254 254 256 257 260 263 261 259 258 258 258 259 259 260 259 257 255 254 254 255 258 262 265 267 268 270 271 272 273 273 274 274 275 275 276 277 278 279 280 281 280 278 276 274 273 273 274 275 278 281 283 284 286 287 288 289 289 287 287 286 287 288 288 289 291 292 293 294 294
273 272 271 270 267 266 264 262 260 258 256 254 252 253 255 254 254 257 258 257 259 264 265 261 258 258 260 261 261 260 259 257 255 254 254 255 258 261 263 266 267 267 267 268 268 269 273 276 277 278 277 276 277 278 279 279 279 278 276 275 274 276 278 279 280 282 282 282 282 283 283 283 282 282 284 286 287 288 288 289 289 290 291 291 292
275 274 273 272 270 268 266 263 261 259 257 254 250 250 253 254 254 258 261 258 256 259 262 259 256 256 258 259 259 259 258 257 255 256 256 256 256 259 262 262 260 256 256 259 263 267 273 277 279 279 276 274 275 277 278 278 278 277 275 274 275 279 281 281 281 280 278 277 277 277 277 278 279 281 285 286 286 286 286 287 288 289 290 291 291
274 274 273 273 272 271 269 267 264 261 258 255 251 250 252 254 254 256 260 261 257 255 255 255 254 254 253 252 254 258 261 259 255 259 264 261 258 257 256 253 251 253 256 259 262 267 271 272 273 272 271 271 273 273 273 274 275 275 274 273 274 274 273 273 273 272 271 271 272 274 276 279 281 284 285 285 285 285 285 286 287 288 289 291 293
272 272 272 273 274 274 273 273 270 267 263 258 253 249 249 252 255 254 256 258 257 257 258 260 263 264 263 258 248 244 249 250 238 220 231 241 241 241 243 244 248 255 258 258 259 261 262 264 266 266 264 263 264 266 269 270 271 272 272 271 270 267 264 264 265 267 268 271 274 278 282 285 286 286 286 285 285 285 285 286 287 288 290 291 292
273 273 273 273 274 273 274 275 275 274 271 267 261 255 252 253 256 256 256 256 255 256 258 261 264 267 269 265 249 235 236 239 228 206 199 216 225 229 237 246 254 260 261 260 258 257 258 261 263 259 254 254 257 260 260 260 262 265 265 264 262 260 259 261 266 271 275 278 281 283 285 285 286 287 287 287 286 286 287 289 290 290 291 292 292
273 274 274 274 273 273 272 272 274 275 275 271 266 261 259 259 260 260 260 258 256 256 256 259 262 264 267 268 259 250 249 243 228 220 232 251 247 243 251 265 274 275 272 266 259 254 249 249 248 242 241 247 252 251 248 249 255 258 259 257 256 257 260 267 275 280 284 286 286 287 288 288 288 288 288 289 289 290 291 292 293 293 294 294 295
272 274 276 276 276 275 273 272 272 274 274 271 266 262 261 263 265 266 264 260 257 256 255 256 258 260 262 265 264 264 265 254 236 234 252 270 273 268 270 278 284 281 273 263 255 246 240 241 244 244 243 246 249 248 248 250 254 256 257 259 262 267 273 279 283 286 289 291 291 292 291 290 289 289 289 291 293 294 295 296 296 296 296 296 296
275 281 282 279 279 278 276 274 275 277 278 278 274 270 267 267 268 271 272 266 260 257 256 256 255 256 259 263 264 263 263 256 249 250 260 272 277 277 277 277 275 268 259 251 246 241 240 241 245 245 244 244 245 247 250 254 258 263 268 274 278 282 285 289 292 295 297 297 297 297 297 296 297 297 297 298 299 300 299 299 298 298 297 296 296
268 276 284 286 286 284 281 278 277 280 283 285 283 279 275 271 269 270 274 275 270 265 263 263 262 261 261 263 264 262 259 255 254 256 261 268 273 273 267 258 250 243 239 237 235 235 236 238 240 242 246 250 256 264 271 276 280 283 287 291 296 300 304 306 307 306 305 304 303 303 302 303 303 302 302 302 301 299 298 297 296 296 295 295 295
249 260 277 289 293 290 282 273 270 272 276 278 278 276 270 266 265 267 270 272 269 265 262 261 259 256 253 252 252 251 251 251 252 253 256 258 259 255 248 242 239 240 243 247 251 256 259 261 265 271 276 280 285 289 292 295 300 307 313 317 320 321 320 317 314 311 308 306 305 304 303 303 302 300 299 298 297 296 295 294 295 295 295 295 295
235 245 256 267 274 273 263 254 250 250 252 255 259 261 260 258 258 260 265 268 265 261 260 257 252 246 241 241 241 240 241 244 246 248 250 250 251 254 257 261 265 271 276 279 281 283 285 287 291 295 298 301 307 312 318 324 329 331 332 331 329 325 320 315 311 308 305 304 303 301 300 299 298 297 296 296 295 295 295 295 295 295 295 295 295
220 225 227 233 244 251 251 252 254 253 255 261 262 255 252 247 231 222 225 232 246 255 258 259 257 251 246 244 243 243 245 247 251 257 263 268 270 274 278 281 283 285 287 289 294 301 308 315 320 324 328 332 335 338 339 340 339 336 332 328 322 316 312 307 305 303 301 300 299 298 297 296 296 295 295 295 296 296 297 296 296 296 296 295 295
210 206 201 199 205 217 230 248 268 275 290 305 306 305 291 249 226 194 193 172 77 352 318 320 322 304 285 275 265 260 258 259 262 266 272 278 282 284 289 297 306 313 319 326 333 339 342 344 344 344 345 344 343 342 339 336 331 327 322 317 311 307 304 302 300 299 298 297 296 296 296 296 297 297 296 297 297 297 298 298 297 297 297 297 298
214 211 206 199 193 189 193 207 258 299 309 318 322 332 349 360 17 52 58 39 35 37 28 9 358 353 351 341 324 313 307 301 302 306 311 320 329 333 337 340 343 345 346 347 348 349 349 349 348 346 343 340 336 333 328 323 318 314 309 305 302 300 299 298 298 297 297 297 297 298 298 298 299 299 299 299 299 299 299 299 299 299 300 300 300
238 238 234 222 206 195 207 241 282 300 301 309 324 324 326 334 334 336 344 341 334 339 346 342 336 337 346 349 355 359 359 356 354 351 349 349 349 349 348 348 349 348 347 346 345 345 344 341 337 332 328 322 318 315 312 308 305 302 300 298 297 296 297 297 298 298 298 299 299 299 299 300 300 300 301 301 301 301 301 301 301 301 302 302 302
248 248 251 250 245 246 258 263 265 279 287 289 294 304 311 313 314 314 311 307 309 314 313 309 314 323 330 336 344 351 352 351 349 347 345 344 343 341 340 340 340 338 337 335 332 329 324 317 313 309 307 304 303 303 302 300 298 297 297 297 297 297 298 299 299 299 300 300 300 300 301 301 301 301 301 302 303 303 303 303 303 303 303 303 303
247 245 245 248 253 257 261 263 266 267 268 267 265 268 280 292 296 300 304 304 306 312 311 308 310 314 317 323 327 328 329 330 328 327 326 325 324 324 324 324 322 320 318 316 312 308 304 302 300 300 299 299 299 300 300 299 299 298 298 298 298 298 299 300 300 300 300 301 301 301 302 302 303 303 302 303 303 303 303 303 303 303 304 304 304
245 241 241 246 252 254 258 266 272 270 264 263 265 265 266 273 277 279 284 287 291 295 298 298 299 300 302 304 304 304 306 307 306 305 305 305 304 304 303 302 302 301 300 299 298 297 296 296 297 297 297 298 298 299 300 300 299 299 299 299 299 299 299 299 299 299 300 300 301 302 302 303 304 304 303 304 304 304 304 304 304 304 305 305 304
243 241 242 248 252 256 260 267 273 271 264 262 267 272 273 273 273 273 273 274 275 278 281 285 288 291 291 292 292 293 294 294 293 292 292 291 290 290 290 290 291 292 292 293 293 293 293 294 295 296 297 297 298 298 298 297 297 297 298 298 298 298 299 299 299 300 302 303 304 305 304 305 306 306 306 306 307 307 307 307 306 306 307 307 306
240 241 249 256 257 260 263 267 271 269 258 252 258 267 272 273 274 274 272 270 269 270 271 272 276 279 279 280 282 283 284 284 285 285 286 286 286 286 287 287 288 290 291 293 294 294 295 296 297 298 298 298 298 298 298 298 298 298 299 299 300 301 302 303 304 305 307 308 308 308 307 308 308 309 309 309 309 309 309 308 308 308 308 308 308
239 244 254 260 258 258 260 262 264 263 256 252 257 263 265 265 266 268 268 269 269 271 272 272 273 273 273 274 276 277 279 281 282 282 283 284 285 286 287 288 290 291 293 294 296 297 297 298 299 299 300 300 300 300 300 301 302 302 303 303 304 305 307 308 308 308 309 309 310 309 309 310 310 311 311 310 310 310 309 309 309 309 309 309 309
247 249 253 255 253 254 256 259 260 261 261 262 264 266 266 265 264 264 267 270 271 273 275 276 275 274 276 278 279 281 282 283 283 284 285 285 286 287 287 289 291 293 294 294 295 296 296 297 298 299 299 300 301 301 302 302 303 304 305 306 307 308 309 309 309 309 310 310 311 311 311 312 312 312 312 311 311 311 311 310 310 310 310 311 311
251 250 250 250 251 251 253 256 260 263 266 268 269 270 270 269 267 267 271 272 271 270 273 276 278 279 280 282 284 285 284 284 284 284 284 284 285 286 287 288 290 291 292 293 294 295 296 297 298 298 299 300 301 301 302 303 304 305 306 307 308 309 309 310 310 311 312 312 313 313 313 313 313 312 312 313 312 312 312 312 312 313 313 313 313
252 250 250 250 251 252 253 257 263 268 271 272 270 270 270 269 267 268 270 272 271 270 272 276 280 281 282 283 284 284 284 285 286 287 287 288 289 290 291 292 293 294 294 296 297 297 298 299 299 299 300 301 302 303 304 306 307 308 309 309 310 311 311 312 313 314 315 315 315 315 315 315 315 314 314 314 314 313 314 314 315 315 315 314 314
252 250 249 249 250 253 258 263 268 272 273 272 268 266 266 266 266 265 267 270 272 272 272 276 279 282 283 283 284 285 286 287 288 289 289 290 291 291 292 293 295 296 298 299 299 299 299 300 300 301 302 303 304 305 306 308 309 310 311 312 313 314 315 315 316 317 317 317 316 316 317 317 316 316 315 315 315 315 316 316 316 316 316 315 314
251 249 248 247 249 255 261 265 267 268 268 267 264 263 263 262 262 263 267 271 275 277 277 277 279 281 283 285 285 286 287 287 287 288 290 291 292 293 294 295 297 298 299 299 299 300 300 301 301 302 303 304 305 306 307 308 309 310 312 313 315 316 317 317 317 317 317 317 317 318 318 318 318 317 316 316 316 316 316 317 317 317 316 316 315
252 251 250 249 251 255 259 260 260 259 259 257 257 256 257 258 261 265 269 271 274 277 279 279 280 281 283 284 284 285 285 286 287 289 292 294 295 297 298 299 300 300 299 300 300 300 301 301 302 303 303 304 304 306 307 309 310 311 313 314 316 316 317 317 317 317 317 318 319 319 319 319 318 317 317 316 316 316 317 318 318 318 318 317 316
251 251 250 250 251 253 254 253 252 251 250 250 251 253 256 260 263 267 270 272 275 277 279 281 282 283 284 285 286 287 288 289 291 293 296 298 299 300 300 301 301 301 301 300 300 300 300 301 302 302 303 303 305 306 308 309 310 312 313 315 316 316 316 316 316 317 318 319 320 320 320 319 319 318 317 317 317 317 318 319 320 320 319 318 317
248 247 247 247 247 247 247 247 246 246 248 250 253 256 259 262 265 268 272 275 278 281 282 284 285 286 286 287 288 290 291 293 295 297 299 300 299 299 300 301 301 300 300 300 300 300 300 301 301 302 303 304 305 307 308 309 310 312 313 314 315 315 315 315 316 316 317 319 320 320 320 320 319 318 317 317 317 318 319 321 322 321 320 319 318